Temperature
22 20 19 20 20 21 21 21 21 21 22 21 20 19 19 19 19 19 19 19 19 19 19 19 19 19 19 19 18 18 18 18 18 17 17 17 17 17 16 16 16 16 16 16
20 20 21 22 22 22 21 21 21 21 22 21 19 19 19 19 19 19 19 19 19 19 19 19 19 19 19 18 18 18 18 18 18 17 17 17 17 16 16 16 16 16 16 16
20 21 22 22 22 22 21 21 21 21 21 21 20 19 19 19 19 19 19 19 19 19 19 19 18 18 18 18 18 18 18 18 18 17 17 17 17 16 16 16 16 16 16 16
20 22 23 22 22 22 21 22 22 22 20 19 20 17 18 18 18 18 18 18 19 19 19 19 18 18 18 18 18 18 18 18 17 17 17 17 17 16 16 16 16 16 16 16
21 22 22 22 22 22 22 22 22 21 20 19 18 17 17 17 17 17 18 18 18 19 19 19 18 18 18 18 18 18 18 17 17 17 17 17 17 16 16 16 16 16 15 15
21 22 22 22 23 23 22 21 20 18 17 18 18 17 17 16 17 18 18 18 18 19 18 18 18 18 18 18 18 18 17 17 17 17 17 17 16 16 16 16 16 15 15 15
20 21 22 23 22 22 20 18 17 17 16 17 18 17 17 18 18 18 18 18 19 19 18 18 18 18 18 18 17 17 17 17 17 17 16 16 16 16 16 16 15 15 15 15
19 19 21 22 21 21 20 18 17 17 17 17 18 17 17 18 19 19 19 19 19 18 18 18 18 18 17 17 17 17 17 17 17 16 16 16 16 16 16 16 15 15 15 15
18 19 21 22 22 21 20 18 18 16 17 17 17 17 18 18 18 18 18 18 18 18 18 18 18 17 17 17 17 17 17 16 16 16 16 16 16 16 16 15 15 15 15 15
19 19 20 21 22 21 20 19 16 17 17 16 17 17 16 17 17 17 17 17 18 18 18 18 17 17 17 17 17 17 16 16 16 16 16 15 15 15 15 15 15 15 15 15
19 18 19 20 20 20 20 19 17 15 15 16 16 16 18 17 17 16 17 18 18 18 18 17 17 17 17 17 17 16 16 16 16 15 15 15 15 15 15 15 15 15 15 15
18 16 17 18 19 20 19 19 17 16 16 15 15 16 18 17 17 17 17 18 18 17 17 17 17 17 17 16 16 16 16 15 15 15 15 15 15 15 14 14 14 14 14 14
17 16 16 17 17 18 19 19 18 15 15 14 15 16 17 17 17 18 18 18 17 17 17 17 17 17 16 16 16 16 15 15 15 15 15 15 15 15 14 14 14 14 14 14
17 15 15 16 17 17 18 19 18 16 15 15 15 16 17 17 16 17 17 17 17 17 17 17 16 16 16 16 16 15 15 15 15 15 15 14 14 14 14 14 14 14 14 14
16 16 16 16 17 18 18 18 18 17 16 15 16 16 16 16 17 17 17 17 17 17 16 16 16 16 16 16 15 15 15 15 14 14 14 14 14 14 14 14 14 14 13 13
15 16 16 17 17 17 17 18 18 18 17 16 16 16 16 17 17 17 17 17 16 16 16 16 16 16 16 15 15 15 15 14 14 14 14 14 14 14 13 13 13 13 13 13
14 15 15 15 16 17 16 17 17 17 17 17 16 16 16 16 16 17 17 17 16 16 16 16 16 15 15 15 15 15 14 14 14 14 14 13 13 13 13 13 13 13 13 13
14 14 13 14 16 16 16 17 17 17 17 17 17 16 16 16 17 17 17 17 16 16 16 15 15 15 15 15 14 14 14 14 13 13 13 13 13 13 12 12 13 13 13 12
14 14 13 13 14 14 16 17 17 17 16 16 16 16 16 16 16 16 16 16 16 16 15 15 15 15 14 14 14 14 14 13 13 13 13 13 12 12 12 12 12 12 12 12
13 13 13 12 14 14 15 17 18 16 15 16 16 15 16 15 13 14 16 16 16 15 15 15 14 14 14 14 13 13 13 13 13 13 12 12 12 12 12 12 11 11 11 11
14 13 12 12 13 13 15 16 17 15 15 16 16 16 16 15 15 15 15 15 15 15 14 14 14 14 13 13 13 13 13 12 12 12 12 12 12 11 11 11 11 11 11 11
13 12 12 11 12 13 15 15 15 14 16 16 16 16 16 15 15 15 15 14 14 14 14 13 13 13 13 12 12 12 12 12 11 11 11 11 11 11 11 11 10 10 10 10
12 12 11 12 13 14 15 15 16 16 16 16 16 16 16 15 14 14 14 14 13 13 13 13 12 12 12 12 12 12 11 11 11 11 11 11 10 10 10 10 10 10 10 10
12 12 11 11 12 13 15 15 15 15 15 15 15 15 15 14 14 14 13 13 13 13 12 12 12 11 11 11 11 11 11 10 10 10 10 10 10 10 10 10 9 9 9 9
12 12 11 11 12 13 14 14 15 15 15 15 14 14 14 14 13 13 13 13 12 12 12 11 11 11 11 10 10 10 10 10 10 10 10 9 9 9 9 9 9 9 9 9
11 11 11 11 13 12 13 14 14 14 14 14 14 14 14 13 13 13 12 12 12 11 11 11 10 10 10 10 10 9 9 9 9 9 9 9 9 9 8 8 8 8 8 8
Wind_Speed
1 4 2 5 6 5 3 2 3 4 3 5 4 3 3 4 5 6 6 6 6 5 3 3 4 4 4 3 3 4 5 5 5 3 3 2 1 1 1 2 3 4 5 5
4 2 7 5 2 2 1 0 1 2 2 4 4 2 2 4 6 7 8 7 7 5 2 2 3 4 4 4 3 3 4 5 5 4 3 3 3 1 1 1 2 3 4 4
5 6 4 2 1 2 2 3 3 3 0 1 3 3 3 2 2 3 5 6 6 7 6 5 4 3 4 3 3 4 3 4 4 4 3 3 3 2 2 1 1 1 3 3
3 4 1 1 2 4 3 4 3 2 2 3 2 2 5 4 2 3 4 5 5 5 5 5 5 4 4 4 3 4 4 3 3 4 5 6 4 3 2 2 1 0 1 2
2 2 1 1 3 3 5 4 2 1 2 1 1 2 6 1 2 5 5 6 6 5 6 6 5 5 4 4 4 4 4 3 3 3 5 5 4 3 2 1 2 1 0 1
3 3 3 4 2 1 1 4 6 5 4 1 4 4 5 4 6 5 5 5 6 5 5 5 4 3 2 2 3 3 4 3 2 3 4 4 5 4 3 2 2 1 1 1
4 4 2 1 2 4 5 6 4 5 3 5 2 3 6 6 6 8 8 7 6 5 5 4 3 2 2 2 2 3 4 3 2 3 3 3 4 4 5 3 3 2 1 1
1 4 4 1 3 3 2 7 6 4 4 4 3 2 5 3 2 5 7 7 6 5 4 4 4 3 3 2 3 3 3 2 2 3 3 3 3 3 2 3 3 3 3 3
3 5 4 2 2 5 3 3 6 6 2 1 3 3 4 2 2 3 4 5 5 5 5 5 4 3 3 3 3 3 3 2 2 2 3 2 2 2 2 2 2 2 2 2
5 2 4 3 3 2 4 5 5 4 2 2 3 3 4 5 5 4 4 5 5 5 4 4 4 3 3 2 2 2 3 2 2 2 3 3 2 2 2 2 2 2 2 2
3 3 4 2 2 3 1 2 4 3 4 4 3 6 5 8 7 7 7 6 6 6 6 5 4 3 3 2 2 2 2 2 1 2 2 2 2 1 1 2 2 2 2 2
3 5 1 5 5 3 4 4 5 4 3 4 4 6 4 6 6 6 6 5 5 5 5 4 4 3 2 2 1 1 2 1 2 2 2 2 2 2 2 2 2 2 3 2
4 5 2 5 6 4 0 1 4 5 4 3 3 6 3 1 3 4 5 5 4 4 4 3 3 3 3 2 2 2 2 2 1 2 2 1 1 2 2 3 2 2 3 2
5 4 6 7 6 3 3 3 2 5 3 4 6 7 4 3 4 4 4 5 5 5 5 4 3 3 2 3 3 2 2 2 2 2 2 1 2 3 3 3 3 3 2 3
5 3 4 6 6 4 5 6 5 6 7 8 8 8 9 9 8 7 6 5 4 4 5 5 5 4 2 2 2 3 2 2 2 2 2 2 2 2 2 2 2 2 3 3
3 3 1 3 4 3 5 7 7 7 6 7 6 7 7 5 3 4 5 6 5 5 5 5 5 4 4 4 3 3 3 3 2 2 2 2 0 1 1 2 2 2 2 2
3 4 2 4 5 4 5 7 7 6 5 7 8 8 3 1 4 6 6 6 6 5 4 5 5 5 5 5 4 4 4 2 2 2 2 1 1 1 1 1 1 1 2 2
6 5 3 2 2 5 7 4 4 4 3 4 4 4 5 6 4 3 4 6 5 4 3 3 3 3 3 3 3 2 2 2 2 2 1 1 1 1 0 0 0 1 1 1
6 7 4 3 3 6 6 4 2 2 3 3 2 2 2 2 3 2 1 2 4 3 3 3 3 3 2 2 3 2 1 2 2 1 2 2 2 2 1 1 1 1 1 1
4 5 5 4 3 6 7 5 2 3 3 4 2 3 3 4 2 4 3 1 2 1 1 1 1 1 1 1 2 3 2 2 2 2 2 2 2 2 3 3 2 1 1 1
2 2 4 5 5 7 7 5 1 3 6 3 2 4 4 4 6 5 2 1 2 2 1 2 2 1 1 1 2 2 2 2 3 2 1 1 1 2 3 2 1 1 1 0
5 4 5 5 4 7 4 1 3 6 3 2 2 3 3 3 3 3 3 2 2 2 2 2 2 0 0 1 2 1 2 2 1 1 1 1 1 1 0 1 1 1 0 1
4 6 5 6 6 4 1 3 3 3 3 3 3 3 3 3 3 3 3 3 2 2 2 1 2 1 1 1 1 1 2 2 1 1 1 1 1 1 1 1 1 1 1 2
3 0 2 2 4 3 2 2 2 1 2 2 3 3 3 3 3 3 3 3 2 2 1 1 2 1 1 2 1 1 2 1 1 1 2 2 1 1 1 1 1 1 2 2
4 0 0 2 4 3 3 3 3 2 0 1 1 1 3 4 3 3 3 3 2 2 1 1 2 1 1 1 1 2 1 0 0 1 1 1 1 1 1 1 2 2 3 4
3 4 4 6 6 4 5 4 2 1 1 2 2 0 1 3 3 3 3 2 2 2 1 1 1 0 1 1 1 2 1 0 1 0 1 1 1 1 1 1 2 3 4 5
Wind_Direction
33 73 210 219 201 194 185 170 210 229 202 147 165 195 217 178 161 162 167 167 168 179 190 140 119 120 114 119 144 148 148 148 137 128 126 121 118 92 70 80 96 97 99 104
38 257 239 228 226 166 153 46 294 288 200 152 158 222 244 178 183 179 175 181 184 177 163 147 120 120 129 126 132 147 161 160 157 154 156 154 151 149 144 67 71 94 103 110
187 243 240 201 208 178 192 181 215 226 337 67 117 332 303 265 185 171 176 175 180 176 176 176 157 149 140 144 152 153 163 166 166 157 131 106 81 63 50 42 26 47 108 110
232 259 198 170 220 164 216 214 198 189 114 261 162 228 276 252 234 204 197 177 179 179 176 178 173 166 165 172 165 151 149 146 157 154 147 146 145 157 191 190 186 83 100 110
256 227 143 224 241 185 213 227 201 190 154 300 310 165 276 271 220 227 207 190 184 180 175 175 183 187 183 169 160 155 139 135 138 149 156 153 149 168 173 154 148 170 265 114
246 245 186 208 259 189 148 46 32 46 73 303 246 176 263 234 211 202 194 187 181 173 172 176 182 166 155 140 133 140 138 138 133 138 141 149 160 162 151 159 171 192 231 272
319 306 287 153 24 1 70 77 32 3 7 259 263 159 245 246 214 182 175 181 177 164 160 162 157 152 153 144 133 130 138 143 149 142 149 161 169 168 171 178 183 180 194 224
239 284 267 222 176 201 164 136 153 200 230 277 329 226 259 271 186 153 154 156 152 154 161 165 168 162 163 156 142 134 146 160 156 154 167 166 159 161 178 185 179 184 197 210
182 259 279 237 184 151 145 167 172 154 230 265 284 295 317 23 77 110 130 136 159 164 163 169 166 154 158 157 151 147 150 161 163 161 152 157 156 161 178 191 184 189 199 197
164 236 291 296 34 13 151 153 95 119 177 258 276 242 226 222 208 183 167 174 182 174 167 166 165 164 171 176 166 138 140 160 186 174 166 168 182 186 180 167 182 193 193 187
124 144 313 2 191 221 114 111 120 133 156 166 241 262 225 203 195 188 193 189 183 180 177 178 181 177 163 138 134 141 155 145 160 172 172 164 184 191 171 175 193 193 187 172
108 120 239 270 273 199 165 175 147 157 231 182 194 261 268 189 192 189 194 197 190 177 181 181 172 157 149 148 143 155 161 166 195 188 169 169 180 179 187 200 209 197 189 195
109 106 69 342 334 353 359 211 162 144 138 169 192 261 310 129 187 200 192 190 186 178 175 168 164 171 183 189 193 189 184 191 183 159 164 169 178 189 207 213 209 199 187 192
112 120 165 196 224 248 272 263 183 140 171 221 223 240 267 237 221 227 212 195 191 188 181 177 185 198 208 208 201 192 203 192 160 134 137 170 212 208 208 209 197 200 191 188
104 159 213 232 242 240 246 250 229 200 197 204 231 229 236 225 214 210 199 190 188 194 194 192 195 198 197 214 222 206 200 196 178 157 176 213 237 237 205 200 201 195 196 202
106 168 228 290 278 277 268 258 243 234 217 216 228 248 247 233 192 195 192 184 190 204 208 203 200 199 201 208 219 219 213 202 177 182 216 231 229 286 224 221 208 191 192 193
148 148 149 267 296 338 276 248 232 230 220 199 219 236 238 192 197 205 199 190 196 202 205 206 210 213 211 211 207 208 214 202 178 195 212 213 182 220 228 232 224 215 208 190
158 146 151 221 351 248 248 259 218 206 245 222 210 220 201 202 208 210 181 178 190 193 199 212 220 225 224 212 201 198 192 185 190 200 212 213 186 206 260 103 244 242 209 203
167 154 146 153 224 271 283 280 221 182 275 285 215 205 180 130 65 0 282 179 191 194 199 205 207 207 210 207 190 159 156 170 173 201 217 213 197 192 197 213 239 242 222 232
106 120 137 154 194 239 249 267 257 112 259 279 179 164 171 118 126 253 265 206 172 150 161 171 169 154 168 213 167 151 173 178 207 219 222 206 192 194 209 219 221 234 220 243
107 116 166 187 218 255 259 284 58 174 239 254 187 171 160 177 205 220 217 176 157 134 129 127 119 130 197 210 146 154 175 220 230 218 209 186 192 210 212 217 218 239 239 282
185 179 192 169 202 251 283 89 181 219 233 238 205 186 176 187 186 176 164 160 137 118 104 113 115 92 283 109 121 152 231 246 214 176 169 203 232 230 218 178 233 250 237 236
192 193 191 190 212 247 270 196 225 196 205 227 205 199 163 152 167 171 175 179 165 146 135 126 122 97 351 348 106 188 266 261 200 168 200 231 257 254 232 201 228 264 250 241
288 175 152 226 269 273 299 316 308 227 208 213 186 175 157 167 177 175 175 184 178 166 155 130 109 101 330 321 335 286 285 277 195 193 223 232 239 277 295 271 236 246 258 256
245 256 134 263 273 306 310 291 273 282 330 77 69 154 166 161 171 176 173 185 191 179 159 129 132 158 270 326 334 324 323 12 165 218 230 251 248 242 264 274 265 254 253 247
225 195 198 234 236 214 250 264 254 216 238 189 145 89 149 160 172 164 166 172 164 153 124 105 92 98 286 326 331 324 320 126 143 219 269 252 253 257 251 258 300 288 269 283
Height
1524 1529 1534 1530 1528 1529 1530 1534 1537 1532 1526 1530 1535 1535 1533 1532 1533 1534 1535 1535 1536 1537 1538 1539 1539 1539 1540 1541 1541 1541 1542 1543 1543 1543 1543 1543 1543 1543 1543 1543 1543 1542 1542 1542
1530 1532 1525 1523 1524 1526 1529 1535 1535 1531 1525 1529 1535 1536 1532 1532 1532 1532 1533 1534 1535 1536 1537 1537 1538 1538 1538 1539 1539 1540 1541 1542 1542 1542 1543 1543 1543 1543 1543 1542 1542 1542 1542 1542
1531 1527 1520 1522 1525 1528 1530 1533 1534 1533 1529 1529 1535 1541 1536 1532 1531 1532 1532 1532 1533 1534 1535 1536 1536 1537 1537 1538 1538 1539 1540 1541 1541 1541 1542 1542 1542 1542 1542 1542 1542 1541 1541 1541
1526 1521 1521 1523 1525 1526 1533 1525 1526 1528 1537 1544 1539 1555 1541 1534 1532 1531 1530 1531 1532 1533 1533 1534 1535 1536 1536 1537 1537 1538 1539 1539 1540 1540 1540 1540 1540 1540 1541 1541 1541 1541 1541 1540
1526 1521 1522 1525 1523 1522 1525 1521 1523 1527 1535 1543 1542 1551 1546 1534 1535 1531 1529 1529 1530 1531 1532 1533 1534 1534 1535 1535 1536 1537 1537 1538 1538 1539 1539 1539 1539 1539 1540 1540 1540 1540 1540 1540
1522 1519 1519 1520 1518 1518 1519 1524 1528 1535 1542 1554 1544 1550 1548 1537 1531 1527 1527 1527 1528 1529 1531 1532 1533 1533 1534 1534 1535 1535 1536 1536 1536 1537 1537 1538 1538 1538 1538 1538 1538 1538 1538 1538
1528 1522 1518 1517 1521 1520 1523 1539 1554 1556 1562 1558 1541 1545 1544 1527 1523 1523 1524 1525 1527 1528 1529 1531 1531 1532 1532 1533 1533 1533 1534 1534 1535 1535 1535 1536 1536 1536 1536 1536 1537 1537 1537 1537
1538 1537 1522 1518 1521 1525 1527 1537 1556 1564 1565 1556 1542 1545 1536 1524 1521 1521 1522 1524 1525 1527 1528 1529 1530 1530 1530 1531 1531 1532 1532 1532 1533 1533 1533 1534 1535 1535 1535 1535 1535 1535 1535 1535
1537 1535 1520 1517 1516 1520 1527 1534 1535 1549 1551 1557 1551 1542 1532 1525 1524 1523 1523 1524 1525 1525 1526 1527 1528 1529 1529 1529 1530 1530 1531 1530 1531 1531 1532 1532 1533 1533 1533 1533 1533 1533 1533 1533
1526 1532 1523 1518 1517 1518 1521 1527 1540 1548 1558 1563 1553 1547 1542 1531 1527 1524 1524 1524 1524 1525 1525 1526 1527 1527 1528 1528 1528 1529 1529 1529 1529 1529 1530 1530 1531 1531 1531 1531 1531 1531 1531 1531
1522 1532 1530 1524 1524 1526 1525 1528 1535 1545 1550 1560 1562 1551 1525 1524 1523 1523 1523 1522 1523 1524 1524 1524 1525 1526 1526 1527 1527 1527 1527 1527 1527 1527 1528 1528 1528 1529 1529 1529 1529 1529 1529 1529
1523 1533 1538 1530 1521 1518 1521 1526 1534 1547 1549 1551 1556 1547 1519 1519 1519 1520 1521 1521 1522 1523 1523 1523 1524 1524 1525 1525 1525 1525 1525 1525 1525 1525 1526 1526 1526 1526 1526 1526 1527 1527 1527 1527
1522 1533 1544 1541 1535 1525 1524 1523 1527 1535 1544 1550 1553 1543 1519 1518 1519 1519 1520 1520 1521 1521 1522 1522 1523 1523 1523 1523 1523 1523 1523 1523 1523 1523 1524 1524 1524 1524 1523 1524 1524 1525 1525 1525
1519 1531 1540 1544 1538 1530 1528 1525 1524 1533 1544 1545 1541 1533 1523 1520 1520 1519 1519 1519 1519 1520 1520 1521 1521 1521 1522 1522 1522 1522 1521 1521 1521 1521 1521 1521 1521 1521 1521 1521 1521 1522 1522 1522
1519 1530 1529 1528 1525 1524 1524 1523 1522 1526 1530 1536 1531 1527 1520 1517 1516 1516 1517 1518 1518 1518 1518 1518 1519 1519 1520 1520 1520 1520 1519 1519 1519 1519 1518 1518 1518 1518 1518 1518 1519 1519 1519 1520
1521 1526 1527 1527 1522 1522 1523 1520 1519 1519 1520 1523 1522 1521 1513 1512 1513 1514 1514 1515 1515 1516 1516 1516 1517 1517 1517 1518 1518 1517 1517 1517 1517 1516 1516 1515 1515 1515 1515 1516 1516 1516 1516 1517
1523 1527 1531 1535 1526 1524 1528 1517 1515 1515 1513 1515 1519 1515 1510 1511 1511 1511 1511 1512 1513 1513 1514 1514 1514 1514 1514 1515 1515 1515 1515 1514 1514 1513 1513 1513 1512 1513 1512 1513 1513 1513 1513 1513
1521 1526 1533 1535 1531 1535 1522 1509 1509 1510 1510 1509 1508 1508 1507 1507 1508 1509 1509 1510 1510 1511 1512 1512 1512 1512 1512 1512 1512 1512 1512 1511 1511 1511 1510 1510 1510 1509 1509 1510 1510 1510 1510 1510
1514 1522 1532 1537 1537 1530 1517 1508 1507 1510 1511 1507 1506 1506 1506 1507 1508 1509 1509 1509 1509 1509 1510 1510 1510 1509 1509 1509 1509 1509 1508 1508 1508 1508 1507 1507 1507 1507 1507 1507 1507 1506 1507 1507
1513 1518 1529 1535 1535 1534 1517 1506 1504 1508 1513 1506 1504 1505 1505 1506 1511 1510 1507 1507 1507 1507 1507 1507 1507 1506 1506 1506 1505 1505 1505 1505 1504 1504 1505 1504 1504 1504 1504 1504 1504 1504 1503 1503
1519 1523 1528 1532 1533 1524 1509 1504 1504 1517 1513 1504 1503 1503 1503 1503 1505 1505 1505 1505 1505 1505 1505 1504 1504 1503 1503 1503 1503 1502 1502 1502 1502 1502 1502 1501 1501 1501 1501 1501 1501 1500 1500 1500
1519 1523 1526 1530 1531 1525 1505 1504 1508 1507 1502 1502 1501 1501 1501 1501 1501 1502 1502 1502 1502 1502 1502 1502 1501 1501 1500 1500 1500 1499 1499 1499 1499 1499 1498 1498 1498 1498 1498 1497 1497 1497 1497 1497
1515 1515 1516 1518 1517 1507 1503 1503 1503 1502 1501 1500 1500 1500 1500 1499 1499 1500 1500 1500 1500 1500 1499 1499 1499 1498 1498 1498 1497 1496 1496 1496 1496 1495 1495 1495 1495 1494 1494 1494 1494 1493 1493 1493
1510 1508 1510 1511 1507 1504 1503 1502 1501 1501 1499 1498 1498 1498 1498 1497 1497 1497 1497 1497 1497 1497 1497 1497 1496 1496 1496 1495 1494 1494 1493 1493 1492 1492 1492 1492 1491 1491 1490 1490 1490 1489 1489 1488
1509 1507 1509 1509 1505 1503 1502 1501 1501 1500 1498 1497 1497 1497 1496 1496 1496 1495 1495 1495 1495 1495 1495 1495 1494 1494 1493 1493 1492 1491 1491 1490 1489 1489 1488 1488 1488 1487 1487 1486 1486 1485 1485 1485
1505 1505 1507 1506 1502 1502 1501 1500 1499 1498 1497 1496 1496 1495 1495 1494 1494 1493 1493 1493 1493 1493 1492 1492 1492 1492 1491 1490 1489 1489 1488 1487 1486 1485 1485 1484 1484 1483 1483 1482 1482 1481 1481 1480